Tracking 29781 objects as of 15-Oct-2024
HD Live streaming from Space Station
objects crossing your sky now

GALS 2

Track GALS 2 now!
GALS 2 is classified as:


NORAD ID: 23717
Int'l Code: 1995-063A
Perigee: 35,875.8 km
Apogee: 35,925.0 km
Inclination: 14.3 °
Period: 1,441.5 minutes
Semi major axis: 42271 km
RCS: 8.9125 m2 (large)
Launch date: November 17, 1995
Source: Commonwealth of Independent States (former USSR) (CIS)
Launch site: TYURATAM MISSILE AND SPACE COMPLEX (TTMTR)
Your satellite tracking list
Your tracking list is empty




NASA's NSSDC Master Catalog

Two Line Element Set (TLE):
1 23717U 95063A   24288.57739507 -.00000354  00000-0  00000-0 0  9993
2 23717  14.2921   7.1236 0005811 290.5056  68.3966  0.99892541105520
Source of the keplerian elements: AFSPC